Toledo, OH

5:03 PM EDT on March 26, 2017 (GMT -0400)
Toledo Express

Weather History for KTOL - March, 2013

Change the Weather History Date:

Thursday, March 7, 2013

  Actual Average Record
Temperature  
Mean Temperature 34 °F 34 °F  
Max Temperature 38 °F 43 °F 75 °F (2000)
Min Temperature 30 °F 25 °F -1 °F (1943)
Degree Days  
Heating Degree Days 31 31  
Month to date heating degree days 254 224  
Since 1 July heating degree days 4710 4800  
Cooling Degree Days 0 0  
Month to date cooling degree days 0 0  
Year to date cooling degree days 0 0  
Moisture  
Dew Point 25 °F    
Average Humidity 70    
Maximum Humidity 85    
Minimum Humidity 54    
Precipitation  
Precipitation 0.00 in 0.08 in 0.63 in (1975)
Month to date precipitation T 0.53  
Year to date precipitation 6.44 4.65  
Snow  
Snow 0.00 in 0.30 in - ()
Month to date snowfall T 1.7  
Since 1 July snowfall 22.5 32.2  
Snow Depth 0.00 in    
Sea Level Pressure  
Sea Level Pressure 30.32 in    
Wind  
Wind Speed 7 mph (NW)    
Max Wind Speed 14 mph    
Max Gust Speed 18 mph    
Visibility 9 miles    
Events      
T = Trace of Precipitation, MM = Missing Value Source: NWS Daily Summary

Daily Weather History Graph

Daily Weather History Graph

Search for Another Location

Airport or City:

Trip Planner

Search our weather history database for the weather conditions in past years. The results will help you decide how hot, cold, wet, or windy it might be!

Date:

Astronomy

Mar. 07, 2013 Rise Set
Actual Time 6:59 AM EST 6:33 PM EST
Civil Twilight 6:32 AM EST 7:00 PM EST
Nautical Twilight 6:00 AM EST 7:32 PM EST
Astronomical Twilight 5:27 AM EST 8:05 PM EST
Moon 4:01 AM EST (3/7) 2:17 PM EST (3/7)
Length of Visible Light 12h 28m
Length of Day
11h 33m
Waning Crescent, 20% of the Moon is Illuminated
Mar 7
Waning Crescent
Mar 11
New
Mar 19
First Quarter
Mar 27
Full
Apr 3
Last Quarter

Hourly Weather History & Observations

Time (EST) Temp. Windchill Dew Point Humidity Pressure Visibility Wind Dir Wind Speed Gust Speed Precip Events Conditions
12:52 AM 32.0 °F 26.4 °F 26.6 °F 80% 30.20 in 9.0 mi West 5.8 mph - N/A   Overcast
1:52 AM 32.0 °F 28.7 °F 26.1 °F 79% 30.23 in 9.0 mi West 3.5 mph - N/A   Overcast
2:52 AM 32.0 °F - 26.1 °F 79% 30.23 in 9.0 mi Calm Calm - N/A   Overcast
3:52 AM 32.0 °F 27.5 °F 26.1 °F 79% 30.23 in 8.0 mi WSW 4.6 mph - N/A   Overcast
4:52 AM 30.9 °F 26.2 °F 26.1 °F 82% 30.25 in 7.0 mi WSW 4.6 mph - N/A   Overcast
5:52 AM 32.0 °F 26.4 °F 26.1 °F 79% 30.26 in 7.0 mi West 5.8 mph - N/A   Overcast
6:52 AM 32.0 °F 25.6 °F 26.1 °F 79% 30.27 in 8.0 mi WNW 6.9 mph - N/A   Overcast
7:52 AM 32.0 °F 26.4 °F 26.6 °F 80% 30.27 in 8.0 mi West 5.8 mph - N/A   Mostly Cloudy
8:52 AM 33.1 °F 24.9 °F 27.0 °F 78% 30.32 in 10.0 mi WNW 10.4 mph - N/A   Overcast
9:52 AM 35.6 °F 27.1 °F 28.4 °F 75% 30.31 in 10.0 mi NW 12.7 mph - N/A   Overcast
10:06 AM 33.8 °F 26.4 °F 28.4 °F 81% 30.31 in 10.0 mi NW 9.2 mph - N/A   Overcast
10:52 AM 36.0 °F 28.5 °F 28.0 °F 73% 30.33 in 10.0 mi NNW 10.4 mph - N/A   Overcast
11:52 AM 36.0 °F 28.5 °F 28.0 °F 73% 30.34 in 10.0 mi NNW 10.4 mph - N/A   Overcast
12:52 PM 36.0 °F 29.0 °F 26.1 °F 67% 30.34 in 10.0 mi NNW 9.2 mph - N/A   Overcast
1:52 PM 37.0 °F 29.3 °F 26.1 °F 65% 30.33 in 10.0 mi North 11.5 mph - N/A   Overcast
2:52 PM 37.9 °F 30.5 °F 24.1 °F 57% 30.33 in 10.0 mi NNW 11.5 mph - N/A   Overcast
3:52 PM 37.0 °F 31.0 °F 23.0 °F 57% 30.34 in 10.0 mi North 8.1 mph - N/A   Overcast
4:52 PM 36.0 °F 29.0 °F 23.0 °F 59% 30.35 in 10.0 mi North 9.2 mph - N/A   Overcast
5:52 PM 36.0 °F 33.3 °F 23.0 °F 59% 30.35 in 10.0 mi North 3.5 mph - N/A   Overcast
6:52 PM 35.1 °F 31.0 °F 23.0 °F 61% 30.38 in 10.0 mi North 4.6 mph - N/A   Overcast
7:52 PM 34.0 °F 28.8 °F 23.0 °F 64% 30.40 in 10.0 mi North 5.8 mph - N/A   Overcast
8:52 PM 33.1 °F 27.7 °F 21.0 °F 61% 30.40 in 10.0 mi North 5.8 mph - N/A   Overcast
9:52 PM 32.0 °F 27.5 °F 21.9 °F 66% 30.40 in 10.0 mi NNE 4.6 mph - N/A   Overcast
10:52 PM 32.0 °F 27.5 °F 19.9 °F 61% 30.40 in 10.0 mi NNE 4.6 mph - N/A   Overcast
11:52 PM 30.9 °F - 18.0 °F 59% 30.40 in 10.0 mi Calm Calm - N/A   Overcast